Scottsdale, AZ

3:29 PM MST on January 18, 2018 (GMT -0700)
Scottsdale

Weather History for KSDL - March, 2013

Change the Weather History Date:

Tuesday, March 5, 2013

  Actual Average Record
Temperature  
Mean Temperature 63 °F -  
Max Temperature 75 °F 69 °F 82 °F (2012)
Min Temperature 51 °F 46 °F 39 °F (2002)
Degree Days  
Heating Degree Days 2    
Growing Degree Days 13 (Base 50)    
Moisture  
Dew Point 34 °F    
Average Humidity 34    
Maximum Humidity 59    
Minimum Humidity 16    
Precipitation  
Precipitation 0.00 in - - ()
Sea Level Pressure  
Sea Level Pressure 30.00 in    
Wind  
Wind Speed 1 mph (East)    
Max Wind Speed 7 mph    
Max Gust Speed -    
Visibility 10 miles    
Events      
Averages and records for this station are not official NWS values.
T = Trace of Precipitation, MM = Missing Value Source: NWS Daily Summary

Daily Weather History Graph

Daily Weather History Graph

Search for Another Location

Airport or City:

Trip Planner

Search our weather history database for the weather conditions in past years. The results will help you decide how hot, cold, wet, or windy it might be!

Date:

Astronomy

Mar. 05, 2013 Rise Set
Actual Time 6:50 AM MST 6:27 PM MST
Civil Twilight 6:25 AM MST 6:52 PM MST
Nautical Twilight 5:56 AM MST 7:21 PM MST
Astronomical Twilight 5:28 AM MST 7:50 PM MST
Moon 1:54 AM MST (3/5) 12:23 PM MST (3/5)
Length of Visible Light 12h 27m
Length of Day
11h 37m
Last Quarter, 40% of the Moon is Illuminated
Mar 5
Last Quarter
Mar 11
New
Mar 19
First Quarter
Mar 27
Full
Apr 2
Last Quarter

Hourly Weather History & Observations

Time (MST) Temp. Dew Point Humidity Pressure Visibility Wind Dir Wind Speed Gust Speed Precip Events Conditions
12:53 AM 57.0 °F 37.9 °F 49% 30.02 in 10.0 mi Calm Calm - N/A   Clear
1:53 AM 57.0 °F 37.0 °F 47% 30.03 in 10.0 mi Calm Calm - N/A   Clear
2:53 AM 55.9 °F 37.0 °F 49% 30.02 in 10.0 mi NE 4.6 mph - N/A   Clear
3:53 AM 54.0 °F 37.9 °F 55% 30.02 in 10.0 mi Calm Calm - N/A   Clear
6:53 AM 51.1 °F 37.0 °F 59% 30.05 in 10.0 mi Calm Calm - N/A   Clear
7:53 AM 53.1 °F 37.0 °F 55% 30.07 in 10.0 mi Calm Calm - N/A   Clear
8:53 AM 59.0 °F 37.9 °F 46% 30.08 in 10.0 mi Calm Calm - N/A   Clear
9:53 AM 63.0 °F 37.0 °F 38% 30.07 in 10.0 mi Calm Calm - N/A   Clear
10:53 AM 66.9 °F 37.0 °F 33% 30.06 in 10.0 mi Calm Calm - N/A   Clear
11:53 AM 70.0 °F 36.0 °F 29% 30.05 in 10.0 mi Calm Calm - N/A   Clear
12:53 PM 73.0 °F 33.1 °F 23% 30.03 in 10.0 mi SSE 4.6 mph - N/A   Clear
1:53 PM 75.0 °F 32.0 °F 21% 29.99 in 10.0 mi SSW 6.9 mph - N/A   Clear
2:53 PM 75.9 °F 30.0 °F 19% 29.97 in 10.0 mi Variable 4.6 mph - N/A   Clear
3:53 PM 75.0 °F 30.0 °F 19% 29.96 in 10.0 mi ENE 3.5 mph - N/A   Clear
4:53 PM 75.9 °F 26.1 °F 16% 29.94 in 10.0 mi South 5.8 mph - N/A   Clear
5:53 PM 73.9 °F 26.1 °F 17% 29.94 in 10.0 mi Calm Calm - N/A   Clear
6:53 PM 72.0 °F 28.0 °F 20% 29.94 in 10.0 mi Calm Calm - N/A   Clear
7:53 PM 69.1 °F 32.0 °F 25% 29.95 in 10.0 mi NE 4.6 mph - N/A   Clear
8:53 PM 68.0 °F 33.1 °F 27% 29.95 in 10.0 mi Calm Calm - N/A   Clear
9:53 PM 64.9 °F 36.0 °F 34% 29.96 in 10.0 mi Calm Calm - N/A   Clear
10:53 PM 63.0 °F 35.1 °F 35% 29.96 in 10.0 mi Calm Calm - N/A   Clear
11:53 PM 61.0 °F 34.0 °F 36% 29.95 in 10.0 mi NE 3.5 mph - N/A   Clear